Regional Weather Roundup
Issued by NWS Boston, MA

Home | Current Version | Previous Version | Text Only | Print | Product List | Glossary On
Versions: 1 2 3 4 5 6 7 8 9 10 11 12 13 14 15 16 17 18 19 20 21 22 23 24 25 26 27 28
000
ASUS41 KBOX 050710
RWRBOX

REGIONAL WEATHER ROUNDUP
NATIONAL WEATHER SERVICE TAUNTON MA
300 AM EDT THU MAY 05 2016

NOTE:  "FAIR" INDICATES FEW OR NO CLOUDS BELOW 12,000 FEET WITH NO
SIGNIFICANT WEATHER AND/OR OBSTRUCTIONS TO VISIBILITY.  THE FOLLOWING
OBSERVATION LOCATIONS DO NOT REPORT PRESENT WEATHER...PROVINCETOWN...
SMITHFIELD...BLOCK ISLAND...KEENE...AND OXFORD.

MAZALL-050800-
EASTERN MASSACHUSETTS

CITY           SKY/WX    TMP DP  RH WIND       PRES   REMARKS
BOSTON         NOT AVBL
BEVERLY        CLOUDY    44  41  89 NE10G21   29.76F FOG
LAWRENCE       CLOUDY    43  41  93 N10       29.79F FOG
BEDFORD        CLOUDY    43  42  97 N7        29.76F FOG
BLUE HILL        N/A     41  41 100 NE14G22   29.72F
NORWOOD        CLOUDY    44  42  93 N8        29.75F FOG
MARSHFIELD     CLOUDY    45  45 100 N8G20     29.75S FOG
PLYMOUTH       CLOUDY    44  43  96 NE17      29.72S FOG
TAUNTON        CLOUDY    46  42  86 N7        29.71F FOG
NEW BEDFORD    CLOUDY    45  43  93 N10G20    29.69F
$$

MAZALL-050800-
CAPE COD AND THE ISLANDS

CITY           SKY/WX    TMP DP  RH WIND       PRES   REMARKS
FALMOUTH       CLOUDY    45  43  93 NE13G22   29.69F FOG
HYANNIS        CLOUDY    45  42  89 N13G20    29.67F
CHATHAM        CLOUDY    44  43  96 NE13G18   29.68F
PROVINCETOWN   CLOUDY    44  43  96 NE18G24   29.71F
NANTUCKET      CLOUDY   N/A N/A N/A N20G26    29.64F HAZE
MARTHAS VNYRD  CLOUDY    45  43  93 N15       29.66F
$$

MAZALL-050800-
CENTRAL AND WESTERN MASSACHUSETTS

CITY           SKY/WX    TMP DP  RH WIND       PRES   REMARKS
WORCESTER      LGT RAIN  39  38  96 NE12G18   29.75S VSB 3/4 WCI  32
FITCHBURG      LGT RAIN  43  40  89 N9        29.79F FOG
ORANGE         CLOUDY    42  39  89 N5        29.77F
SPRINGFIELD    NOT AVBL
WESTFIELD      CLOUDY    44  40  85 N10       29.77F
NORTH ADAMS    CLOUDY    46  38  73 VRB6      29.76F
PITTSFIELD     CLOUDY    43  38  82 NE8       29.73F
$$

RIZALL-050800-
RHODE ISLAND

CITY           SKY/WX    TMP DP  RH WIND       PRES   REMARKS
PROVIDENCE     CLOUDY    45  42  89 N14       29.72F
NEWPORT        CLOUDY    45  42  89 N16G26    29.69F
BLOCK ISLAND   CLOUDY    45  43  93 NE17G25   29.69F
SMITHFIELD     CLOUDY    43  39  87 N13       29.74F
WESTERLY       CLOUDY    46  42  86 N10G17    29.71F
$$

CTZALL-050800-
CONNECTICUT

CITY           SKY/WX    TMP DP  RH WIND       PRES   REMARKS
BRADLEY INTL   CLOUDY    45  40  82 N9        29.75F
HARTFORD       CLOUDY    47  40  76 N10       29.75F
BRIDGEPORT     CLOUDY    47  41  80 NE10      29.72F
DANBURY        CLOUDY    45  40  82 NE10      29.75S
GROTON         CLOUDY    45  45 100 N10       29.70F
NEW HAVEN      CLOUDY    45  41  86 N10       29.72F
CHESTER        CLOUDY    45  41  87 N9G16     29.72F
MERIDEN        CLOUDY    46  39  76 N9        29.74F
WILLIMANTIC    CLOUDY    45  40  82 N10       29.74F
OXFORD           N/A     43  37  81 NE14G21   29.73F
$$

MEZ002-015-021-024-NHZ003-005-008-011-012-014-VTZ005-008-050800-
NORTHERN NEW ENGLAND

CITY           SKY/WX    TMP DP  RH WIND       PRES   REMARKS
PORTLAND ME    CLOUDY    43  41  93 N10       29.81F FOG
BANGOR ME      LGT RAIN  45  41  86 N9        29.87F
CONCORD NH     CLOUDY    43  39  86 N5        29.81F
MANCHESTER NH  DRIZZLE   43  40  89 N7        29.78F FOG
NASHUA NH      CLOUDY    42  41  96 N8        29.80F FOG
PORTSMOUTH NH  CLOUDY    43  41  93 N8G17     29.78F
JAFFREY NH     CLOUDY    40  38  93 VRB7      29.78F FOG
KEENE NH       CLOUDY    43  39  87 N5        29.80S
BURLINGTON VT  CLOUDY    47  45  93 SE3       29.81S
MT. WASHINGTON FOG       28  28 100 E17         N/A  VSB 0   WCI  16
$$

NYZ052-076-050800-
EASTERN NEW YORK

CITY           SKY/WX    TMP DP  RH WIND       PRES   REMARKS
ALBANY         CLOUDY    48  44  86 N6        29.77F
NEW YORK CITY  CLOUDY    49  45  86 N9        29.73R
$$

ANZALL-050800-
MARINE OBSERVATIONS

STATION/POSITION TIME  TEMP    WIND        PRES    VSBY  WAVE
                       AIR SEA DIR/SP/G                  HT/PER
                 (UTC) (F)     (DEG/KT/KT) (MB)    (MI)  (FT/S)
BOSTON BUOY      0650   44 47   20/ 21/ 25 1006.1F         6/ 7
BUZZARDS BAY     0700   45      20/ 21/ 24 1005.0F
NANTUCKET SOUND  0650   46 47   20/ 17/ 21 1004.3F         3/ 4
MASS BAY-STELLWA 0604   44 46                N/A    1 1/8  6/ 6
ISLE OF SHOALS   0700   43      30/ 26/ 30 1007.3F
S OF BLOCK IS    NOT AVBL
$$

......................KEY.........................
  SKY/WX - SKY CONDITION/PRESENT WEATHER
  TMP    - TEMPERATURE IN FAHRENHEIT
  DWPT   - DEWPOINT IN FAHRENHEIT
  RH     - RELATIVE HUMIDITY IN PERCENT
  WIND   - DIRECTION AND SPEED IN MPH
  PRES   - MEAN SEA LEVEL PRESSURE IN INCHES OF HG
  WCI    - WIND CHILL INDEX
  VSB    - VISIBILITY IN MILES
  HX     - HEAT INDEX
  TC     - TEMPERATURE IN CELSIUS
  VRB    - VARIABLE WIND DIRECTION
  N/A    - NOT AVAILABLE




USA.gov is the U.S. government's official web portal to all federal, state and local government web resources and services.